Home   Weather   The Bottom   Past weeks

Flag for Caribbean Netherlands Past Weather in The Bottom, Saba, Caribbean Netherlands — Yesterday and Last 2 Weeks

Now
79 °F

Warm.


Feels Like: 82 °F
Forecast: 76 / 82 °F
Wind: 21 mph from Northeast

Location: Roosevelt Airport / Saint Eustatius

Current Time: Apr 30, 2017 at 9:07:54 am

Latest Report: Apr 30, 2017 at 7:55 am


Visibility: N/A

Pressure: 30.07 "Hg

Humidity: 79%

Dew Point: 72 °F

Location of The BottomLocation

Past Weather in The Bottom — Graph

°F

The Bottom Temperature Yesterday

Maximum temperature yesterday: 82 °F (at 8:55 am)
Minimum temperature yesterday: 77 °F (at 12:55 am)
Average temperature yesterday: 79 °F

High & Low Weather Summary for the Past Weeks

 TemperatureHumidityPressure
High88 °F (Apr 27, 1:55 pm)94% (Apr 15, 11:55 am)30.09 "Hg (Apr 15, 11:55 am)
Low72 °F (Apr 20, 9:55 pm)51% (Apr 19, 9:55 am)29.92 "Hg (Apr 20, 3:55 pm)
Average79 °F76%29.99 "Hg
* Reported Apr 15 7:55 am — Apr 30 7:55 am, The Bottom, Weather by CustomWeather, © 2017

Note: Actual official high and low records may vary slightly from our data, if they occured in-between our weather recording intervals... More about our weather records

Advertising

The Bottom Weather History for the Previous 24 Hours

Scroll right to see more
 ConditionsComfort  
Time TempWeatherWind HumidityBarometerVisibility
7:55 am
Sun, Apr 30
79 °FWarm.21 mph79%30.07 "HgN/A
6:55 am79 °FWarm.20 mph74%30.04 "HgN/A
5:55 am77 °FWarm.17 mph83%30.04 "HgN/A
4:55 am77 °FWarm.14 mph83%30.01 "HgN/A
3:55 am77 °FWarm.17 mph89%30.01 "HgN/A
2:55 am77 °FWarm.14 mph79%30.01 "HgN/A
1:55 am77 °FWarm.15 mph83%30.01 "HgN/A
12:55 am77 °FWarm.15 mph83%30.04 "HgN/A
11:55 pm
Sat, Apr 29
79 °FWarm.16 mph79%30.07 "HgN/A
10:55 pm79 °FWarm.15 mph79%30.07 "HgN/A
9:55 pm79 °FWarm.17 mph79%30.04 "HgN/A
8:55 pm79 °FWarm.18 mph79%30.07 "HgN/A
7:55 pm79 °FWarm.18 mph79%30.04 "HgN/A
6:55 pm77 °FWarm.15 mph83%30.01 "HgN/A
5:55 pm79 °FWarm.18 mph79%30.01 "HgN/A
4:55 pm81 °FWarm.17 mph74%30.01 "HgN/A
3:55 pm81 °FWarm.16 mph79%30.01 "HgN/A
2:55 pm79 °FWarm.15 mph84%30.01 "HgN/A
1:55 pm77 °FWarm.15 mph89%30.04 "HgN/A
12:55 pm82 °FWarm.14 mph74%30.04 "HgN/A
11:55 am81 °FWarm.17 mph79%30.07 "HgN/A
10:55 am82 °FWarm.18 mph74%30.07 "HgN/A
9:55 am81 °FWarm.15 mph79%30.09 "HgN/A
Weather by CustomWeather, © 2017

See weather overviewHow to use our weather pages